Time+07,TemperatureF,Dew PointF,Humidity,Sea Level PressureIn,VisibilityMPH,Wind Direction,Wind SpeedMPH,Gust SpeedMPH,PrecipitationIn,Events,Conditions,WindDirDegrees,DateUTC
12:00 AM,75.2,68.0,78,29.80,4.3,Variable,3.5,-,N/A,,Partly Cloudy,0,2013-01-04 17:00:00
12:30 AM,75.2,66.2,73,29.80,4.3,Variable,2.3,-,N/A,,Partly Cloudy,0,2013-01-04 17:30:00
1:00 AM,73.4,66.2,78,29.80,4.3,Variable,2.3,-,N/A,,Partly Cloudy,0,2013-01-04 18:00:00
7:00 AM,,,,,,Calm,Calm,,,,,,2013-01-05 00:00:00
7:00 AM,69.8,66.2,88,29.86,4.3,Calm,Calm,-,N/A,,Unknown,0,2013-01-05 00:00:00
8:00 AM,73.4,66.2,78,29.86,5.6,Variable,1.2,-,N/A,,Unknown,0,2013-01-05 01:00:00
8:30 AM,75.2,64.4,69,29.89,-9999.0,NNE,3.5,-,N/A,,Clear,30,2013-01-05 01:30:00
9:00 AM,78.8,64.4,61,29.89,-9999.0,ESE,4.6,-,N/A,,Clear,120,2013-01-05 02:00:00
9:30 AM,80.6,64.4,58,29.89,-9999.0,East,4.6,-,N/A,,Clear,90,2013-01-05 02:30:00
10:00 AM,80.6,64.4,58,29.89,-9999.0,ESE,4.6,-,N/A,,Clear,110,2013-01-05 03:00:00
10:30 AM,82.4,62.6,51,29.86,-9999.0,ESE,4.6,-,N/A,,Clear,110,2013-01-05 03:30:00
11:30 AM,86.0,62.6,45,29.83,6.2,ENE,2.3,-,N/A,,Scattered Clouds,70,2013-01-05 04:30:00
12:00 PM,84.2,62.6,48,29.83,6.2,North,4.6,-,N/A,,Scattered Clouds,10,2013-01-05 05:00:00
12:30 PM,86.0,62.6,45,29.80,6.2,NNW,4.6,-,N/A,,Scattered Clouds,330,2013-01-05 05:30:00
1:00 PM,86.0,62.6,45,29.80,6.2,Variable,2.3,-,N/A,,Scattered Clouds,0,2013-01-05 06:00:00
1:30 PM,86.0,66.2,51,29.77,6.2,SSW,9.2,-,N/A,,Scattered Clouds,200,2013-01-05 06:30:00
2:00 PM,86.0,66.2,51,29.77,6.2,SW,8.1,-,N/A,,Scattered Clouds,230,2013-01-05 07:00:00
2:30 PM,86.0,66.2,51,29.77,6.2,WSW,8.1,-,N/A,,Scattered Clouds,250,2013-01-05 07:30:00
3:00 PM,86.0,66.2,51,29.74,6.2,SSW,8.1,-,N/A,,Scattered Clouds,210,2013-01-05 08:00:00
3:30 PM,86.0,66.2,51,29.74,6.2,SW,10.4,-,N/A,,Scattered Clouds,220,2013-01-05 08:30:00
4:00 PM,86.0,64.4,48,29.74,6.2,WSW,9.2,-,N/A,,Scattered Clouds,250,2013-01-05 09:00:00
4:30 PM,84.2,66.2,55,29.74,6.2,SW,4.6,-,N/A,,Scattered Clouds,220,2013-01-05 09:30:00
5:00 PM,84.2,66.2,55,29.77,6.2,SSW,4.6,-,N/A,,Scattered Clouds,210,2013-01-05 10:00:00
5:30 PM,80.6,68.0,65,29.77,6.2,South,3.5,-,N/A,,Scattered Clouds,180,2013-01-05 10:30:00
6:00 PM,80.6,68.0,65,29.77,6.2,South,3.5,-,N/A,,Scattered Clouds,170,2013-01-05 11:00:00
6:30 PM,78.8,68.0,69,29.77,6.2,SSE,3.5,-,N/A,,Scattered Clouds,160,2013-01-05 11:30:00
7:00 PM,77.0,69.8,78,29.80,5.6,Calm,Calm,-,N/A,,Scattered Clouds,0,2013-01-05 12:00:00
7:30 PM,77.0,69.8,78,29.80,5.6,Calm,Calm,-,N/A,,Scattered Clouds,0,2013-01-05 12:30:00
8:00 PM,75.2,69.8,83,29.80,5.0,Calm,Calm,-,N/A,,Scattered Clouds,0,2013-01-05 13:00:00
8:30 PM,75.2,69.8,83,29.80,5.0,Calm,Calm,-,N/A,,Scattered Clouds,0,2013-01-05 13:30:00
9:00 PM,75.2,69.8,83,29.80,4.3,Calm,Calm,-,N/A,,Partly Cloudy,0,2013-01-05 14:00:00
10:00 PM,73.4,69.8,88,29.80,4.3,NE,4.6,-,N/A,,Partly Cloudy,40,2013-01-05 15:00:00
10:30 PM,75.2,69.8,83,29.80,4.3,NE,5.8,-,N/A,,Partly Cloudy,50,2013-01-05 15:30:00
11:00 PM,75.2,69.8,83,29.80,4.3,East,2.3,-,N/A,,Partly Cloudy,90,2013-01-05 16:00:00